When you browse on this site, cookies collect data to enhance your experience and personalize the content and advertising you see.
Visit our Privacy Policy to learn more. By continuing to use the site, you agree to this use of cookies and data.
  • In Hungary
  • List of Countries
  • For 7 days
  • Water Temperature
  • Weather Map
  • News
  • Weather Widgets
  • user-avatar
    Login

    Hourly Weather Bregenz

    Today, 31 May, Sunday

    Time Temperature Precipitation Wind Pressure Humidity
    00:00 +4°C° 0 mm 1 mps 646 mmHg 91%
    01:00 +3°C° 0 mm 1 mps 645 mmHg 91%
    02:00 +3°C° 0 mm 1 mps 645 mmHg 91%
    03:00 +2°C° 0 mm 1 mps 645 mmHg 92%
    04:00 +2°C° 0 mm 1 mps 645 mmHg 93%
    05:00 +2°C° 0 mm 0 mps 645 mmHg 88%
    06:00 +4°C° 0 mm 0 mps 646 mmHg 83%
    07:00 +6°C° 0 mm 0 mps 646 mmHg 78%
    08:00 +8°C° 0 mm 1 mps 646 mmHg 71%
    09:00 +10°C° 0 mm 1 mps 647 mmHg 64%
    10:00 +10°C° 0 mm 2 mps 647 mmHg 57%
    11:00 +12°C° 0 mm 2 mps 647 mmHg 55%
    12:00 +12°C° 0 mm 3 mps 647 mmHg 52%
    13:00 +12°C° 0 mm 3 mps 648 mmHg 51%
    14:00 +12°C° 0 mm 3 mps 648 mmHg 52%
    15:00 +12°C° 0 mm 3 mps 647 mmHg 53%
    16:00 +12°C° 0 mm 3 mps 647 mmHg 54%
    17:00 +11°C° 0 mm 3 mps 647 mmHg 60%
    18:00 +10°C° 0 mm 3 mps 647 mmHg 66%
    19:00 +9°C° 0 mm 2 mps 647 mmHg 72%
    20:00 +7°C° 0 mm 2 mps 647 mmHg 78%
    21:00 +6°C° 0 mm 2 mps 646 mmHg 83%
    22:00 +5°C° 0 mm 1 mps 646 mmHg 89%
    23:00 +5°C° 0 mm 1 mps 646 mmHg 89%

    Tomorrow, 1 June, Monday

    Time Temperature Precipitation Wind Pressure Humidity
    00:00 +4°C° 0 mm 1 mps 646 mmHg 89%
    01:00 +4°C° 0 mm 1 mps 646 mmHg 88%
    02:00 +4°C° 0 mm 1 mps 646 mmHg 88%
    03:00 +4°C° 0 mm 1 mps 646 mmHg 87%
    04:00 +4°C° 0 mm 1 mps 646 mmHg 87%
    05:00 +5°C° 0 mm 1 mps 646 mmHg 80%
    06:00 +7°C° 0 mm 1 mps 647 mmHg 74%
    07:00 +9°C° 0 mm 1 mps 648 mmHg 67%
    08:00 +11°C° 0 mm 1 mps 648 mmHg 62%
    09:00 +13°C° 0 mm 1 mps 649 mmHg 57%
    10:00 +14°C° 0 mm 1 mps 649 mmHg 52%
    11:00 +15°C° 0 mm 2 mps 649 mmHg 50%
    12:00 +16°C° 0 mm 2 mps 649 mmHg 48%
    13:00 +17°C° 0 mm 2 mps 649 mmHg 45%
    14:00 +17°C° 0 mm 2 mps 649 mmHg 47%
    15:00 +17°C° 0 mm 3 mps 649 mmHg 49%
    16:00 +17°C° 0 mm 3 mps 649 mmHg 51%
    17:00 +16°C° 0 mm 2 mps 649 mmHg 60%
    18:00 +15°C° 0 mm 2 mps 648 mmHg 68%
    19:00 +14°C° 0 mm 2 mps 648 mmHg 76%
    20:00 +12°C° 0 mm 1 mps 648 mmHg 81%
    21:00 +10°C° 0 mm 1 mps 647 mmHg 86%
    22:00 +8°C° 0 mm 1 mps 647 mmHg 91%
    23:00 +8°C° 0 mm 1 mps 647 mmHg 92%

    Day after tomorrow, 2 June, Tuesday

    Time Temperature Precipitation Wind Pressure Humidity
    00:00 +7°C° 0 mm 1 mps 647 mmHg 92%
    01:00 +7°C° 0 mm 1 mps 646 mmHg 92%
    02:00 +6°C° 0 mm 1 mps 646 mmHg 92%
    03:00 +6°C° 0 mm 1 mps 646 mmHg 93%
    04:00 +6°C° 0 mm 1 mps 646 mmHg 93%
    05:00 +7°C° 0 mm 1 mps 646 mmHg 89%
    06:00 +9°C° 0 mm 1 mps 647 mmHg 85%
    07:00 +9°C° 0 mm 0 mps 647 mmHg 80%
    08:00 +12°C° 0 mm 1 mps 647 mmHg 75%
    09:00 +13°C° 0 mm 1 mps 648 mmHg 69%
    10:00 +15°C° 0 mm 2 mps 648 mmHg 63%
    11:00 +16°C° 0 mm 2 mps 648 mmHg 59%
    12:00 +17°C° 0 mm 2 mps 648 mmHg 55%
    13:00 +17°C° 0 mm 2 mps 648 mmHg 51%
    14:00 +17°C° 0.1 mm 2 mps 647 mmHg 52%
    15:00 +17°C° 0.1 mm 3 mps 647 mmHg 53%
    16:00 +17°C° 0.1 mm 3 mps 647 mmHg 53%
    17:00 +16°C° 0 mm 3 mps 646 mmHg 61%
    18:00 +15°C° 0 mm 2 mps 646 mmHg 68%
    19:00 +14°C° 0 mm 2 mps 645 mmHg 75%
    20:00 +12°C° 0 mm 1 mps 645 mmHg 80%
    21:00 +10°C° 0 mm 1 mps 644 mmHg 85%
    22:00 +8°C° 0 mm 1 mps 644 mmHg 90%
    23:00 +7°C° 0 mm 1 mps 643 mmHg 91%

    3 June, Wednesday

    Time Temperature Precipitation Wind Pressure Humidity
    00:00 +7°C° 0 mm 1 mps 643 mmHg 91%
    01:00 +7°C° 0 mm 1 mps 643 mmHg 92%
    02:00 +6°C° 0 mm 1 mps 642 mmHg 92%
    03:00 +6°C° 0 mm 1 mps 642 mmHg 92%
    04:00 +6°C° 0 mm 1 mps 642 mmHg 93%
    05:00 +8°C° 0 mm 1 mps 642 mmHg 87%
    06:00 +9°C° 0 mm 1 mps 642 mmHg 82%
    07:00 +11°C° 0 mm 1 mps 642 mmHg 77%
    08:00 +13°C° 0 mm 1 mps 643 mmHg 68%
    09:00 +15°C° 0 mm 1 mps 643 mmHg 60%
    10:00 +18°C° 0 mm 1 mps 643 mmHg 52%
    11:00 +18°C° 0 mm 1 mps 643 mmHg 49%
    12:00 +19°C° 0 mm 1 mps 643 mmHg 47%
    13:00 +19°C° 0 mm 2 mps 643 mmHg 45%
    14:00 +19°C° 0 mm 2 mps 642 mmHg 46%
    15:00 +20°C° 0 mm 1 mps 642 mmHg 47%
    16:00 +20°C° 0 mm 1 mps 642 mmHg 47%
    17:00 +18°C° 0.4 mm 1 mps 641 mmHg 57%
    18:00 +16°C° 0.4 mm 1 mps 641 mmHg 66%
    19:00 +13°C° 0.4 mm 0 mps 640 mmHg 75%
    20:00 +13°C° 0.5 mm 1 mps 640 mmHg 80%
    21:00 +12°C° 0.5 mm 2 mps 640 mmHg 84%
    22:00 +9°C° 0.5 mm 2 mps 640 mmHg 89%
    23:00 +9°C° 0.3 mm 2 mps 639 mmHg 89%

    4 June, Thursday

    Time Temperature Precipitation Wind Pressure Humidity
    00:00 +10°C° 0.3 mm 1 mps 639 mmHg 90%
    01:00 +9°C° 0.3 mm 1 mps 639 mmHg 90%
    02:00 +9°C° 0.2 mm 1 mps 639 mmHg 91%
    03:00 +9°C° 0.2 mm 1 mps 638 mmHg 92%
    04:00 +9°C° 0.2 mm 1 mps 638 mmHg 93%
    05:00 +10°C° 0.1 mm 1 mps 638 mmHg 92%
    06:00 +10°C° 0.1 mm 1 mps 638 mmHg 91%
    07:00 +11°C° 0.1 mm 1 mps 638 mmHg 91%
    08:00 +11°C° 0.2 mm 1 mps 638 mmHg 89%
    09:00 +12°C° 0.2 mm 1 mps 639 mmHg 87%
    10:00 +12°C° 0.2 mm 1 mps 639 mmHg 85%
    11:00 +12°C° 0.6 mm 2 mps 639 mmHg 88%
    12:00 +12°C° 0.6 mm 2 mps 638 mmHg 90%
    13:00 +10°C° 0.6 mm 2 mps 638 mmHg 92%
    14:00 +10°C° 1.5 mm 2 mps 638 mmHg 93%
    15:00 +10°C° 1.5 mm 1 mps 638 mmHg 95%
    16:00 +10°C° 1.5 mm 1 mps 638 mmHg 96%
    17:00 +10°C° 1.7 mm 1 mps 638 mmHg 97%
    18:00 +9°C° 1.7 mm 1 mps 639 mmHg 97%
    19:00 +9°C° 1.7 mm 1 mps 639 mmHg 97%
    20:00 +9°C° 1 mm 1 mps 639 mmHg 97%
    21:00 +9°C° 1 mm 1 mps 639 mmHg 96%
    22:00 +9°C° 1 mm 1 mps 639 mmHg 95%
    23:00 +9°C° 0.3 mm 1 mps 639 mmHg 95%

    5 June, Friday

    Time Temperature Precipitation Wind Pressure Humidity
    00:00 +9°C° 0.3 mm 1 mps 639 mmHg 95%
    01:00 +9°C° 0.3 mm 1 mps 639 mmHg 94%
    02:00 +9°C° 1.4 mm 1 mps 639 mmHg 95%
    03:00 +9°C° 1.4 mm 1 mps 639 mmHg 96%
    04:00 +9°C° 1.4 mm 1 mps 639 mmHg 96%
    05:00 +9°C° 0.6 mm 1 mps 639 mmHg 96%
    06:00 +9°C° 0.6 mm 1 mps 639 mmHg 95%
    07:00 +10°C° 0.6 mm 1 mps 640 mmHg 94%
    08:00 +11°C° 0.2 mm 1 mps 640 mmHg 91%
    09:00 +12°C° 0.2 mm 1 mps 640 mmHg 87%
    10:00 +13°C° 0.2 mm 1 mps 640 mmHg 84%
    11:00 +14°C° 0.2 mm 1 mps 640 mmHg 77%
    12:00 +16°C° 0.2 mm 2 mps 641 mmHg 70%
    13:00 +17°C° 0.2 mm 2 mps 641 mmHg 63%
    14:00 +17°C° 0.9 mm 2 mps 640 mmHg 69%
    15:00 +16°C° 0.9 mm 2 mps 640 mmHg 76%
    16:00 +15°C° 0.9 mm 2 mps 640 mmHg 82%
    17:00 +14°C° 1.9 mm 2 mps 639 mmHg 87%
    18:00 +13°C° 1.9 mm 1 mps 639 mmHg 91%
    19:00 +12°C° 1.9 mm 1 mps 638 mmHg 95%
    20:00 +11°C° 0.8 mm 1 mps 639 mmHg 95%
    21:00 +11°C° 0.8 mm 1 mps 639 mmHg 95%
    22:00 +10°C° 0.8 mm 1 mps 639 mmHg 94%
    23:00 +10°C° 1.5 mm 1 mps 639 mmHg 95%
    Show more